This demonstration page uses our WeatherBlox Daily Observations layout. Learn more.

Left ArrowRight Arrow

Hourly Observations for April 30, 2017

Temp ( °F °C ) Dew Point ( °F °C ) Humidity (%) Winds ( mph kmh ) Pressure ( in mb ) Visibility ( mi km ) Precip ( " mm )
12:53 am 00:53 Mostly Cloudy 40 4.4 32 0 73 73 SSW 3 6 29.99 1016 10 16 0.00 0.00
1:53 am 01:53 Mostly Cloudy 38 3.3 33 0.6 83 83 Calm 29.96 1015 10 16 0.00 0.00
2:53 am 02:53 Clear 38 3.3 33 0.6 83 83 WNW 3 6 29.94 1014 10 16 0.00 0.00
3:53 am 03:53 Clear 37 2.8 34 1.1 89 89 W 3 6 29.94 1014 10 16 0.00 0.00
4:53 am 04:53 Clear 38 3.3 34 1.1 86 86 WNW 5 7 29.92 1013 10 16 0.00 0.00
5:53 am 05:53 Cloudy 38 3.3 35 1.7 89 89 W 5 7 29.91 1013 10 16 0.00 0.00
6:53 am 06:53 Cloudy 39 3.9 36 2.2 89 89 W 6 9 29.92 1013 10 16 0.00 0.00
7:53 am 07:53 Cloudy 44 6.7 37 2.8 76 76 SW 13 20 29.92 1013 10 16 0.00 0.00
8:53 am 08:53 Cloudy 47 8.3 35 1.7 63 63 SW 14 22 29.91 1013 10 16 0.00 0.00
9:53 am 09:53 Partly Cloudy 52 11.1 34 1.1 50 50 SW 10 17 29.90 1013 10 16 0.00 0.00
10:53 am 10:53 Mostly Cloudy 55 12.8 35 1.7 47 47 SW 16 26 29.89 1012 10 16 0.00 0.00
11:53 am 11:53 Partly Cloudy 59 15 33 0.6 38 38 WSW 10 17 29.86 1011 10 16 0.00 0.00
12:53 pm 12:53 Mostly Cloudy 61 16.1 31 -0.6 32 32 WSW 23 37 29.83 1010 10 16 0.00 0.00
1:53 pm 13:53 Cloudy 61 16.1 31 -0.6 32 32 WSW 21 33 29.82 1010 10 16 0.00 0.00
2:53 pm 14:53 Partly Cloudy 63 17.2 31 -0.6 30 30 W 18 30 29.81 1009 10 16 0.00 0.00
3:53 pm 15:53 Mostly Cloudy 62 16.7 31 -0.6 31 31 WSW 18 30 29.80 1009 10 16 0.00 0.00
4:53 pm 16:53 Cloudy 61 16.1 30 -1.1 31 31 W 21 33 29.80 1009 10 16 0.00 0.00
5:53 pm 17:53 Cloudy 58 14.4 31 -0.6 36 36 WNW 17 28 29.82 1010 10 16 0.00 0.00
6:53 pm 18:53 Cloudy 59 15 29 -1.7 32 32 WNW 17 28 29.83 1010 10 16 0.00 0.00
7:53 pm 19:53 Cloudy 55 12.8 31 -0.6 40 40 WNW 9 15 29.83 1010 10 16 0.00 0.03
8:53 pm 20:53 Mostly Cloudy 53 11.7 30 -1.1 41 41 W 15 24 29.85 1011 10 16 0.00 0.00
9:53 pm 21:53 Mostly Cloudy 51 10.6 31 -0.6 46 46 WNW 23 37 29.88 1012 10 16 0.00 0.00
10:53 pm 22:53 Partly Cloudy 47 8.3 36 2.2 66 66 NW 16 26 29.91 1013 10 16 0.00 0.00
11:53 pm 23:53 Mostly Cloudy 42 5.6 36 2.2 79 79 NW 9 15 29.93 1014 10 16 0.00 0.00

Powered by AerisWeather